Time,TemperatureF,DewpointF,PressureIn,WindDirection,WindDirectionDegrees,WindSpeedMPH,WindSpeedGustMPH,Humidity,HourlyPrecipIn,Conditions,Clouds,dailyrainin,SoftwareType,DateUTC
2013-06-23 00:00:00,68.1,58.8,30.24,NE,54,0.0,0.0,72,0.00,,CLR,0.00,VWS V14.00,2013-06-23 04:00:00,
2013-06-23 00:01:00,68.1,58.8,30.24,NE,54,0.0,0.0,72,0.00,,CLR,0.00,VWS V14.00,2013-06-23 04:01:00,
2013-06-23 00:02:00,68.1,58.8,30.24,NE,54,0.0,0.0,72,0.00,,CLR,0.00,VWS V14.00,2013-06-23 04:02:00,
2013-06-23 00:07:00,68.1,58.8,30.24,NE,54,0.0,0.0,72,0.00,,CLR,0.00,VWS V14.00,2013-06-23 04:07:00,
2013-06-23 00:12:00,67.6,58.6,30.24,NE,54,0.0,0.0,73,0.00,,CLR,0.00,VWS V14.00,2013-06-23 04:12:00,
2013-06-23 00:17:00,67.7,59.2,30.24,SSE,154,3.0,3.2,74,0.00,,CLR,0.00,VWS V14.00,2013-06-23 04:17:00,
2013-06-23 00:22:00,67.7,59.2,30.24,SSE,154,0.0,0.0,74,0.00,,CLR,0.00,VWS V14.00,2013-06-23 04:22:00,
2013-06-23 00:28:00,66.8,59.0,30.24,NNW,327,2.5,3.2,76,0.00,,CLR,0.00,VWS V14.00,2013-06-23 04:28:00,
2013-06-23 00:33:00,66.4,59.4,30.24,NNW,327,0.0,0.0,78,0.00,,CLR,0.00,VWS V14.00,2013-06-23 04:33:00,
2013-06-23 00:38:00,66.6,59.6,30.24,NNW,327,0.0,0.0,78,0.00,,CLR,0.00,VWS V14.00,2013-06-23 04:38:00,
2013-06-23 00:43:00,66.8,59.7,30.24,NW,326,0.0,0.0,78,0.00,,CLR,0.00,VWS V14.00,2013-06-23 04:43:00,
2013-06-23 00:48:00,66.8,59.7,30.24,NNW,327,0.0,0.0,78,0.00,,CLR,0.00,VWS V14.00,2013-06-23 04:48:00,
2013-06-23 00:53:00,66.8,59.7,30.24,NW,326,0.0,0.0,78,0.00,,CLR,0.00,VWS V14.00,2013-06-23 04:53:00,
2013-06-23 00:58:00,66.6,59.6,30.24,NNW,327,0.0,0.0,78,0.00,,CLR,0.00,VWS V14.00,2013-06-23 04:58:00,
2013-06-23 01:03:00,66.6,59.9,30.24,ENE,72,0.0,0.0,79,0.00,,CLR,0.00,VWS V14.00,2013-06-23 05:03:00,
2013-06-23 01:08:00,66.6,59.9,30.24,ENE,72,0.0,0.0,79,0.00,,CLR,0.00,VWS V14.00,2013-06-23 05:08:00,
2013-06-23 01:13:00,66.6,59.9,30.24,ENE,72,0.0,0.0,79,0.00,,CLR,0.00,VWS V14.00,2013-06-23 05:13:00,
2013-06-23 01:18:00,66.4,59.7,30.24,ENE,72,0.0,0.0,79,0.00,,CLR,0.00,VWS V14.00,2013-06-23 05:18:00,
2013-06-23 01:23:00,66.8,60.1,30.24,ENE,72,0.0,0.0,79,0.00,,CLR,0.00,VWS V14.00,2013-06-23 05:23:00,
2013-06-23 01:29:00,66.8,60.1,30.24,ENE,72,2.5,2.7,79,0.00,,CLR,0.00,VWS V14.00,2013-06-23 05:29:00,
2013-06-23 01:34:00,66.6,59.9,30.24,ENE,72,0.0,0.0,79,0.00,,CLR,0.00,VWS V14.00,2013-06-23 05:34:00,
2013-06-23 01:39:00,66.4,60.1,30.24,ENE,72,0.0,0.0,80,0.00,,CLR,0.00,VWS V14.00,2013-06-23 05:39:00,
2013-06-23 01:44:00,66.3,60.3,30.24,ENE,72,0.0,0.0,81,0.00,,CLR,0.00,VWS V14.00,2013-06-23 05:44:00,
2013-06-23 01:49:00,66.4,60.4,30.24,ENE,72,0.0,0.0,81,0.00,,CLR,0.00,VWS V14.00,2013-06-23 05:49:00,
2013-06-23 01:54:00,66.4,60.4,30.24,ENE,72,0.0,0.0,81,0.00,,CLR,0.00,VWS V14.00,2013-06-23 05:54:00,
2013-06-23 01:59:00,66.6,60.6,30.24,ENE,72,0.0,0.0,81,0.00,,CLR,0.00,VWS V14.00,2013-06-23 05:59:00,
2013-06-23 02:02:00,66.4,60.4,30.24,ENE,72,0.0,0.0,81,0.00,,CLR,0.00,VWS V14.00,2013-06-23 06:02:00,
2013-06-23 02:07:00,65.9,60.2,30.24,ENE,72,0.0,0.0,82,0.00,,CLR,0.00,VWS V14.00,2013-06-23 06:07:00,
2013-06-23 02:12:00,66.1,60.4,30.24,ENE,72,0.0,0.0,82,0.00,,CLR,0.00,VWS V14.00,2013-06-23 06:12:00,
2013-06-23 02:17:00,66.3,60.6,30.21,ENE,72,0.0,0.0,82,0.00,,CLR,0.00,VWS V14.00,2013-06-23 06:17:00,
2013-06-23 02:22:00,65.9,60.2,30.21,ENE,72,0.0,0.0,82,0.00,,CLR,0.00,VWS V14.00,2013-06-23 06:22:00,
2013-06-23 02:27:00,65.9,60.2,30.21,ENE,72,0.0,0.0,82,0.00,,CLR,0.00,VWS V14.00,2013-06-23 06:27:00,
2013-06-23 02:32:00,65.9,60.2,30.21,ENE,72,0.0,0.0,82,0.00,,CLR,0.00,VWS V14.00,2013-06-23 06:32:00,
2013-06-23 02:37:00,65.3,60.0,30.21,ENE,72,0.0,0.0,83,0.00,,CLR,0.00,VWS V14.00,2013-06-23 06:37:00,
2013-06-23 02:42:00,65.7,60.4,30.21,ENE,72,0.0,0.0,83,0.00,,CLR,0.00,VWS V14.00,2013-06-23 06:42:00,
2013-06-23 02:48:00,65.7,60.4,30.21,ENE,72,0.0,0.0,83,0.00,,CLR,0.00,VWS V14.00,2013-06-23 06:48:00,
2013-06-23 02:53:00,65.5,59.9,30.21,ENE,72,0.0,0.0,82,0.00,,CLR,0.00,VWS V14.00,2013-06-23 06:53:00,
2013-06-23 02:58:00,65.3,60.0,30.21,ENE,72,0.0,0.0,83,0.00,,CLR,0.00,VWS V14.00,2013-06-23 06:58:00,
2013-06-23 03:03:00,65.2,59.9,30.21,ENE,72,0.0,0.0,83,0.00,,CLR,0.00,VWS V14.00,2013-06-23 07:03:00,
2013-06-23 03:08:00,65.3,60.0,30.21,ENE,72,0.0,0.0,83,0.00,,CLR,0.00,VWS V14.00,2013-06-23 07:08:00,
2013-06-23 03:13:00,65.2,59.9,30.21,ENE,72,2.5,3.2,83,0.00,,CLR,0.00,VWS V14.00,2013-06-23 07:13:00,
2013-06-23 03:18:00,64.8,59.8,30.18,ENE,72,0.0,0.0,84,0.00,,CLR,0.00,VWS V14.00,2013-06-23 07:18:00,
2013-06-23 03:23:00,64.8,59.8,30.18,ENE,72,0.0,0.0,84,0.00,,CLR,0.00,VWS V14.00,2013-06-23 07:23:00,
2013-06-23 03:28:00,64.4,59.8,30.18,ENE,72,0.0,0.0,85,0.00,,CLR,0.00,VWS V14.00,2013-06-23 07:28:00,
2013-06-23 03:33:00,64.0,59.4,30.18,ENE,72,0.0,0.0,85,0.00,,CLR,0.00,VWS V14.00,2013-06-23 07:33:00,
2013-06-23 03:38:00,64.0,59.8,30.18,ENE,72,0.0,0.0,86,0.00,,CLR,0.00,VWS V14.00,2013-06-23 07:38:00,
2013-06-23 03:43:00,63.8,59.9,30.18,ENE,72,0.0,0.0,87,0.00,,CLR,0.00,VWS V14.00,2013-06-23 07:43:00,
2013-06-23 03:48:00,64.0,60.4,30.21,ENE,72,2.5,2.7,88,0.00,,CLR,0.00,VWS V14.00,2013-06-23 07:48:00,
2013-06-23 03:53:00,64.0,60.4,30.21,ENE,72,0.0,0.0,88,0.00,,CLR,0.00,VWS V14.00,2013-06-23 07:53:00,
2013-06-23 03:59:00,64.0,60.4,30.21,ENE,72,0.0,0.0,88,0.00,,CLR,0.00,VWS V14.00,2013-06-23 07:59:00,
2013-06-23 04:04:00,64.0,60.4,30.18,ENE,72,0.0,0.0,88,0.00,,CLR,0.00,VWS V14.00,2013-06-23 08:04:00,
2013-06-23 04:09:00,64.2,60.9,30.18,ENE,72,0.0,0.0,89,0.00,,CLR,0.00,VWS V14.00,2013-06-23 08:09:00,
2013-06-23 04:14:00,64.0,60.4,30.18,ENE,72,0.0,0.0,88,0.00,,CLR,0.00,VWS V14.00,2013-06-23 08:14:00,
2013-06-23 04:19:00,63.3,60.3,30.21,ENE,72,0.0,0.0,90,0.00,,CLR,0.00,VWS V14.00,2013-06-23 08:19:00,
2013-06-23 04:24:00,63.1,60.8,30.21,ENE,72,3.0,3.2,92,0.00,,CLR,0.00,VWS V14.00,2013-06-23 08:24:00,
2013-06-23 04:29:00,63.1,61.0,30.21,ENE,72,0.0,0.0,93,0.00,,CLR,0.00,VWS V14.00,2013-06-23 08:29:00,
2013-06-23 04:34:00,63.3,61.2,30.21,ENE,72,0.0,0.0,93,0.00,,CLR,0.00,VWS V14.00,2013-06-23 08:34:00,
2013-06-23 04:39:00,63.5,61.1,30.21,ENE,72,0.0,0.0,92,0.00,,CLR,0.00,VWS V14.00,2013-06-23 08:39:00,
2013-06-23 04:45:00,63.7,61.3,30.21,ENE,72,0.0,0.0,92,0.00,,CLR,0.00,VWS V14.00,2013-06-23 08:45:00,
2013-06-23 04:50:00,63.8,61.2,30.21,ENE,72,0.0,0.0,91,0.00,,CLR,0.00,VWS V14.00,2013-06-23 08:50:00,
2013-06-23 04:55:00,63.8,61.2,30.21,ENE,72,0.0,0.0,91,0.00,,CLR,0.00,VWS V14.00,2013-06-23 08:55:00,
2013-06-23 05:00:00,63.8,61.2,30.21,ENE,72,0.0,0.0,91,0.00,,CLR,0.00,VWS V14.00,2013-06-23 09:00:00,
2013-06-23 05:05:00,63.7,61.0,30.21,ENE,72,0.0,0.0,91,0.00,,CLR,0.00,VWS V14.00,2013-06-23 09:05:00,
2013-06-23 05:10:00,63.8,61.2,30.21,ENE,72,0.0,0.0,91,0.00,,CLR,0.00,VWS V14.00,2013-06-23 09:10:00,
2013-06-23 05:15:00,63.7,61.0,30.21,ENE,72,0.0,0.0,91,0.00,,CLR,0.00,VWS V14.00,2013-06-23 09:15:00,
2013-06-23 05:20:00,63.7,61.3,30.21,ENE,72,0.0,0.0,92,0.00,,CLR,0.00,VWS V14.00,2013-06-23 09:20:00,
2013-06-23 05:25:00,63.7,61.3,30.21,ENE,72,0.0,0.0,92,0.00,,CLR,0.00,VWS V14.00,2013-06-23 09:25:00,
2013-06-23 05:30:00,63.5,61.1,30.21,ENE,72,0.0,0.0,92,0.00,,CLR,0.00,VWS V14.00,2013-06-23 09:30:00,
2013-06-23 05:35:00,63.1,61.0,30.21,ENE,72,0.0,0.0,93,0.00,,CLR,0.00,VWS V14.00,2013-06-23 09:35:00,
2013-06-23 05:41:00,63.3,61.5,30.21,ENE,72,0.0,0.0,94,0.00,,CLR,0.00,VWS V14.00,2013-06-23 09:41:00,
2013-06-23 05:46:00,63.5,61.4,30.21,ESE,114,0.0,0.0,93,0.00,,CLR,0.00,VWS V14.00,2013-06-23 09:46:00,
2013-06-23 05:51:00,63.5,61.4,30.21,ESE,114,0.0,0.0,93,0.00,,CLR,0.00,VWS V14.00,2013-06-23 09:51:00,
2013-06-23 05:56:00,63.5,61.1,30.21,ESE,114,0.0,0.0,92,0.00,,CLR,0.00,VWS V14.00,2013-06-23 09:56:00,
2013-06-23 06:01:00,63.5,61.1,30.24,ESE,114,0.0,0.0,92,0.00,,CLR,0.00,VWS V14.00,2013-06-23 10:01:00,
2013-06-23 06:06:00,63.3,60.9,30.24,ESE,114,0.0,0.0,92,0.00,,CLR,0.00,VWS V14.00,2013-06-23 10:06:00,
2013-06-23 06:11:00,63.3,60.9,30.24,ESE,114,0.0,0.0,92,0.00,,CLR,0.00,VWS V14.00,2013-06-23 10:11:00,
2013-06-23 06:16:00,63.3,60.9,30.24,ESE,114,0.0,0.0,92,0.00,,CLR,0.00,VWS V14.00,2013-06-23 10:16:00,
2013-06-23 06:21:00,63.3,60.9,30.24,ESE,114,0.0,0.0,92,0.00,,CLR,0.00,VWS V14.00,2013-06-23 10:21:00,
2013-06-23 06:27:00,63.3,60.9,30.24,ESE,114,0.0,0.0,92,0.00,,CLR,0.00,VWS V14.00,2013-06-23 10:27:00,
2013-06-23 06:32:00,63.3,61.2,30.24,ESE,114,0.0,0.0,93,0.00,,CLR,0.00,VWS V14.00,2013-06-23 10:32:00,
2013-06-23 06:37:00,63.5,61.1,30.24,ESE,114,0.0,0.0,92,0.00,,CLR,0.00,VWS V14.00,2013-06-23 10:37:00,
2013-06-23 06:42:00,63.1,61.0,30.24,ESE,114,0.0,0.0,93,0.00,,CLR,0.00,VWS V14.00,2013-06-23 10:42:00,
2013-06-23 06:47:00,63.1,61.0,30.24,WSW,240,0.0,0.0,93,0.00,,CLR,0.00,VWS V14.00,2013-06-23 10:47:00,
2013-06-23 06:52:00,63.1,61.0,30.24,WSW,240,0.0,0.0,93,0.00,,CLR,0.00,VWS V14.00,2013-06-23 10:52:00,
2013-06-23 06:57:00,63.1,61.4,30.24,WSW,240,0.0,0.0,94,0.00,,CLR,0.00,VWS V14.00,2013-06-23 10:57:00,
2013-06-23 07:02:00,62.7,61.3,30.24,WSW,240,0.0,0.0,95,0.00,,CLR,0.00,VWS V14.00,2013-06-23 11:02:00,
2013-06-23 07:07:00,62.9,61.8,30.24,WSW,240,0.0,0.0,96,0.00,,CLR,0.00,VWS V14.00,2013-06-23 11:07:00,
2013-06-23 07:12:00,62.9,61.8,30.24,WSW,240,0.0,0.0,96,0.00,,CLR,0.00,VWS V14.00,2013-06-23 11:12:00,
2013-06-23 07:17:00,63.1,62.0,30.24,WSW,240,0.0,0.0,96,0.00,,CLR,0.00,VWS V14.00,2013-06-23 11:17:00,
2013-06-23 07:22:00,63.3,61.8,30.24,WSW,240,0.0,0.0,95,0.00,,CLR,0.00,VWS V14.00,2013-06-23 11:22:00,
2013-06-23 07:27:00,63.5,62.0,30.24,WSW,240,0.0,0.0,95,0.00,,CLR,0.00,VWS V14.00,2013-06-23 11:27:00,
2013-06-23 07:32:00,63.5,61.7,30.24,WSW,240,0.0,0.0,94,0.00,,CLR,0.00,VWS V14.00,2013-06-23 11:32:00,
2013-06-23 07:38:00,63.5,61.7,30.24,WSW,240,0.0,0.0,94,0.00,,CLR,0.00,VWS V14.00,2013-06-23 11:38:00,
2013-06-23 07:43:00,63.8,62.1,30.24,WSW,240,0.0,0.0,94,0.00,,CLR,0.00,VWS V14.00,2013-06-23 11:43:00,
2013-06-23 07:48:00,64.0,62.3,30.24,WSW,240,0.0,0.0,94,0.00,,CLR,0.00,VWS V14.00,2013-06-23 11:48:00,
2013-06-23 07:53:00,64.0,62.3,30.24,WSW,240,0.0,0.0,94,0.00,,CLR,0.00,VWS V14.00,2013-06-23 11:53:00,
2013-06-23 07:58:00,64.2,62.5,30.24,WSW,240,0.0,0.0,94,0.00,,CLR,0.00,VWS V14.00,2013-06-23 11:58:00,
2013-06-23 08:03:00,64.4,62.6,30.24,WSW,240,0.0,0.0,94,0.00,,CLR,0.00,VWS V14.00,2013-06-23 12:03:00,
2013-06-23 08:08:00,64.6,62.8,30.24,NNW,330,0.0,2.7,94,0.00,,CLR,0.00,VWS V14.00,2013-06-23 12:08:00,
2013-06-23 08:13:00,64.8,63.3,30.24,NW,319,3.4,3.8,95,0.00,,CLR,0.00,VWS V14.00,2013-06-23 12:13:00,
2013-06-23 08:18:00,65.0,63.5,30.24,NNW,337,0.0,2.7,95,0.00,,CLR,0.00,VWS V14.00,2013-06-23 12:18:00,
2013-06-23 08:23:00,65.3,63.6,30.24,North,353,0.0,2.7,94,0.00,,CLR,0.00,VWS V14.00,2013-06-23 12:23:00,
2013-06-23 08:28:00,65.3,63.6,30.24,NNW,327,0.0,2.7,94,0.00,,CLR,0.00,VWS V14.00,2013-06-23 12:28:00,
2013-06-23 08:34:00,65.5,63.8,30.24,NNW,327,0.0,0.0,94,0.00,,CLR,0.00,VWS V14.00,2013-06-23 12:34:00,
2013-06-23 08:39:00,65.7,63.6,30.24,North,8,0.0,0.0,93,0.00,,CLR,0.00,VWS V14.00,2013-06-23 12:39:00,
2013-06-23 08:44:00,65.7,63.3,30.24,North,8,0.0,0.0,92,0.00,,CLR,0.00,VWS V14.00,2013-06-23 12:44:00,
2013-06-23 08:49:00,65.9,63.5,30.24,North,8,0.0,0.0,92,0.00,,CLR,0.00,VWS V14.00,2013-06-23 12:49:00,
2013-06-23 08:54:00,66.1,63.7,30.24,NNW,334,0.0,0.0,92,0.00,,CLR,0.00,VWS V14.00,2013-06-23 12:54:00,
2013-06-23 08:59:00,66.1,64.0,30.24,WNW,303,2.5,3.8,93,0.00,,CLR,0.00,VWS V14.00,2013-06-23 12:59:00,
2013-06-23 09:04:00,66.6,64.6,30.24,WNW,303,0.0,3.2,93,0.00,,SCT065,0.00,VWS V14.00,2013-06-23 13:04:00,
2013-06-23 09:09:00,67.0,64.9,30.24,WNW,303,3.4,3.8,93,0.00,,SCT065,0.00,VWS V14.00,2013-06-23 13:09:00,
2013-06-23 09:14:00,67.0,64.9,30.24,NNW,338,0.0,3.2,93,0.00,,SCT065,0.00,VWS V14.00,2013-06-23 13:14:00,
2013-06-23 09:19:00,67.4,65.0,30.24,NE,44,0.0,0.0,92,0.00,,SCT065,0.00,VWS V14.00,2013-06-23 13:19:00,
2013-06-23 09:25:00,67.7,65.0,30.24,ENE,62,0.0,0.0,91,0.00,,SCT065,0.00,VWS V14.00,2013-06-23 13:25:00,
2013-06-23 09:30:00,68.1,65.4,30.24,NW,307,3.0,3.8,91,0.00,,SCT065,0.00,VWS V14.00,2013-06-23 13:30:00,
2013-06-23 09:35:00,68.5,65.4,30.24,South,188,0.0,0.0,90,0.00,,SCT065,0.00,VWS V14.00,2013-06-23 13:35:00,
2013-06-23 09:40:00,68.7,65.3,30.24,SE,137,2.5,3.8,89,0.00,,SCT065,0.00,VWS V14.00,2013-06-23 13:40:00,
2013-06-23 09:45:00,69.0,65.3,30.24,SE,143,2.5,2.7,88,0.00,,SCT065,0.00,VWS V14.00,2013-06-23 13:45:00,
2013-06-23 09:50:00,69.2,65.2,30.24,SE,131,0.0,2.7,87,0.00,,SCT065,0.00,VWS V14.00,2013-06-23 13:50:00,
2013-06-23 09:55:00,69.6,65.2,30.24,SE,131,0.0,0.0,86,0.00,,SCT065,0.00,VWS V14.00,2013-06-23 13:55:00,
2013-06-23 10:00:00,70.0,65.6,30.24,SSW,210,0.0,3.2,86,0.00,,SCT065,0.00,VWS V14.00,2013-06-23 14:00:00,
2013-06-23 10:05:00,70.2,65.4,30.27,South,187,3.4,4.3,85,0.00,,BKN060,0.00,VWS V14.00,2013-06-23 14:05:00,
2013-06-23 10:10:00,70.7,65.6,30.27,SW,224,0.0,0.0,84,0.00,,BKN060,0.00,VWS V14.00,2013-06-23 14:10:00,
2013-06-23 10:15:00,71.1,65.0,30.27,South,177,3.4,4.3,81,0.00,,BKN060,0.00,VWS V14.00,2013-06-23 14:15:00,
2013-06-23 10:20:00,71.4,65.3,30.24,SSW,197,0.0,3.8,81,0.00,,BKN060,0.00,VWS V14.00,2013-06-23 14:20:00,
2013-06-23 10:25:00,72.0,65.9,30.24,WNW,303,3.0,3.8,81,0.00,,BKN060,0.00,VWS V14.00,2013-06-23 14:25:00,
2013-06-23 10:30:00,72.4,65.9,30.24,NW,318,0.0,3.8,80,0.00,,BKN060,0.00,VWS V14.00,2013-06-23 14:30:00,
2013-06-23 10:35:00,72.8,65.9,30.24,SW,232,2.5,3.8,79,0.00,,BKN060,0.00,VWS V14.00,2013-06-23 14:35:00,
2013-06-23 10:41:00,73.3,65.3,30.24,WNW,298,0.0,0.0,76,0.00,,BKN060,0.00,VWS V14.00,2013-06-23 14:41:00,
2013-06-23 10:46:00,73.7,65.3,30.24,South,187,3.0,3.8,75,0.00,,BKN060,0.00,VWS V14.00,2013-06-23 14:46:00,
2013-06-23 10:51:00,73.9,63.9,30.24,SSE,159,2.5,3.2,71,0.00,,BKN060,0.00,VWS V14.00,2013-06-23 14:51:00,
2013-06-23 10:56:00,74.4,63.6,30.24,SW,218,0.0,4.8,69,0.00,,BKN060,0.00,VWS V14.00,2013-06-23 14:56:00,
2013-06-23 11:01:00,74.6,63.3,30.24,South,190,0.0,2.7,68,0.00,,BKN060,0.00,VWS V14.00,2013-06-23 15:01:00,
2013-06-23 11:06:00,75.2,63.9,30.24,SW,231,3.0,3.2,68,0.00,,CLR,0.00,VWS V14.00,2013-06-23 15:06:00,
2013-06-23 11:11:00,75.2,63.9,30.24,North,349,2.5,3.8,68,0.00,,CLR,0.00,VWS V14.00,2013-06-23 15:11:00,
2013-06-23 11:16:00,75.5,65.1,30.24,SW,216,3.9,4.3,70,0.00,,CLR,0.00,VWS V14.00,2013-06-23 15:16:00,
2013-06-23 11:21:00,76.1,65.2,30.24,SE,138,0.0,3.2,69,0.00,,CLR,0.00,VWS V14.00,2013-06-23 15:21:00,
2013-06-23 11:26:00,76.3,65.4,30.24,South,187,3.4,4.8,69,0.00,,CLR,0.00,VWS V14.00,2013-06-23 15:26:00,
2013-06-23 11:31:00,76.8,64.2,30.24,South,186,3.0,3.2,65,0.00,,CLR,0.00,VWS V14.00,2013-06-23 15:31:00,
2013-06-23 11:36:00,77.6,64.9,30.24,West,275,3.0,4.3,65,0.00,,CLR,0.00,VWS V14.00,2013-06-23 15:36:00,
2013-06-23 11:41:00,77.6,64.9,30.24,SSW,193,4.4,5.9,65,0.00,,CLR,0.00,VWS V14.00,2013-06-23 15:41:00,
2013-06-23 11:46:00,77.9,63.0,30.24,WSW,238,3.0,3.2,60,0.00,,CLR,0.00,VWS V14.00,2013-06-23 15:46:00,
2013-06-23 11:51:00,77.9,63.4,30.24,SSE,158,5.4,8.1,61,0.00,,CLR,0.00,VWS V14.00,2013-06-23 15:51:00,
2013-06-23 11:56:00,78.7,61.2,30.24,SSE,168,0.0,4.8,55,0.00,,CLR,0.00,VWS V14.00,2013-06-23 15:56:00,
2013-06-23 12:01:00,78.7,62.7,30.24,SSE,163,3.9,6.4,58,0.00,,CLR,0.00,VWS V14.00,2013-06-23 16:01:00,
2013-06-23 12:06:00,78.9,62.8,30.24,ENE,74,3.0,3.8,58,0.00,,CLR,0.00,VWS V14.00,2013-06-23 16:06:00,
2013-06-23 12:11:00,79.2,60.1,30.24,North,349,0.0,0.0,52,0.00,,CLR,0.00,VWS V14.00,2013-06-23 16:11:00,
2013-06-23 12:16:00,79.8,61.7,30.24,SSW,207,3.4,5.9,54,0.00,,CLR,0.00,VWS V14.00,2013-06-23 16:16:00,
2013-06-23 12:22:00,80.2,62.5,30.24,SSW,209,7.4,8.1,55,0.00,,CLR,0.00,VWS V14.00,2013-06-23 16:22:00,
2013-06-23 12:27:00,80.7,61.5,30.24,West,264,6.4,7.0,52,0.00,,CLR,0.00,VWS V14.00,2013-06-23 16:27:00,
2013-06-23 12:32:00,80.9,61.1,30.24,WSW,249,4.4,4.8,51,0.00,,CLR,0.00,VWS V14.00,2013-06-23 16:32:00,
2013-06-23 12:37:00,80.0,60.2,30.24,WNW,298,3.0,4.3,51,0.00,,CLR,0.00,VWS V14.00,2013-06-23 16:37:00,
2013-06-23 12:42:00,79.8,61.2,30.24,WNW,286,5.4,5.9,53,0.00,,CLR,0.00,VWS V14.00,2013-06-23 16:42:00,
2013-06-23 12:47:00,79.6,62.5,30.24,NW,306,6.4,10.5,56,0.00,,CLR,0.00,VWS V14.00,2013-06-23 16:47:00,
2013-06-23 12:52:00,80.7,63.6,30.24,WNW,301,8.9,14.2,56,0.00,,CLR,0.00,VWS V14.00,2013-06-23 16:52:00,
2013-06-23 12:57:00,80.7,62.5,30.24,West,270,6.4,9.1,54,0.00,,CLR,0.00,VWS V14.00,2013-06-23 16:57:00,
2013-06-23 12:58:00,80.9,62.7,30.24,WNW,284,8.9,11.5,54,0.00,,CLR,0.00,VWS V14.00,2013-06-23 16:58:00,
2013-06-23 13:00:00,81.1,62.4,30.24,West,281,8.4,9.9,53,0.00,,CLR,0.00,VWS V14.00,2013-06-23 17:00:00,
2013-06-23 13:05:00,82.0,62.1,30.24,West,271,3.4,4.8,51,0.00,,FEW043,0.00,VWS V14.00,2013-06-23 17:05:00,
2013-06-23 13:10:00,81.5,64.3,30.24,NNW,345,3.9,8.6,56,0.00,,FEW043,0.00,VWS V14.00,2013-06-23 17:10:00,
2013-06-23 13:15:00,81.3,64.6,30.24,NW,309,6.9,9.7,57,0.00,,FEW043,0.00,VWS V14.00,2013-06-23 17:15:00,
2013-06-23 13:20:00,82.0,61.0,30.24,NW,318,7.4,9.7,49,0.00,,FEW043,0.00,VWS V14.00,2013-06-23 17:20:00,
2013-06-23 13:25:00,81.8,60.8,30.24,NW,317,5.9,7.0,49,0.00,,FEW043,0.00,VWS V14.00,2013-06-23 17:25:00,
2013-06-23 13:30:00,82.9,62.4,30.24,West,276,6.4,9.1,50,0.00,,FEW043,0.00,VWS V14.00,2013-06-23 17:30:00,
2013-06-23 13:35:00,82.8,60.5,30.21,West,270,8.9,9.7,47,0.00,,FEW043,0.00,VWS V14.00,2013-06-23 17:35:00,
2013-06-23 13:40:00,82.9,60.1,30.21,WSW,242,6.4,7.0,46,0.00,,FEW043,0.00,VWS V14.00,2013-06-23 17:40:00,
2013-06-23 13:45:00,83.1,60.2,30.21,NW,326,5.9,9.1,46,0.00,,FEW043,0.00,VWS V14.00,2013-06-23 17:45:00,
2013-06-23 13:50:00,82.8,58.0,30.21,South,185,3.9,6.4,43,0.00,,FEW043,0.00,VWS V14.00,2013-06-23 17:50:00,
2013-06-23 13:56:00,83.3,59.2,30.21,NW,325,5.4,6.4,44,0.00,,FEW043,0.00,VWS V14.00,2013-06-23 17:56:00,
2013-06-23 14:01:00,83.7,57.5,30.21,West,278,4.4,4.8,41,0.00,,FEW043,0.00,VWS V14.00,2013-06-23 18:01:00,
2013-06-23 14:06:00,84.4,59.5,30.21,West,266,4.4,6.4,43,0.00,,BKN045,0.00,VWS V14.00,2013-06-23 18:06:00,
2013-06-23 14:11:00,83.7,58.8,30.21,WNW,298,5.9,7.5,43,0.00,,BKN045,0.00,VWS V14.00,2013-06-23 18:11:00,
2013-06-23 14:16:00,83.9,58.3,30.21,WNW,290,3.9,5.9,42,0.00,,BKN045,0.00,VWS V14.00,2013-06-23 18:16:00,
2013-06-23 14:21:00,83.7,58.2,30.21,SSW,194,3.4,6.4,42,0.00,,BKN045,0.00,VWS V14.00,2013-06-23 18:21:00,
2013-06-23 14:26:00,84.1,58.5,30.21,ESE,119,0.0,3.8,42,0.00,,BKN045,0.00,VWS V14.00,2013-06-23 18:26:00,
2013-06-23 14:31:00,83.9,58.3,30.21,WSW,240,6.9,7.5,42,0.00,,BKN045,0.00,VWS V14.00,2013-06-23 18:31:00,
2013-06-23 14:36:00,85.0,59.3,30.21,South,175,3.0,4.3,42,0.00,,BKN045,0.00,VWS V14.00,2013-06-23 18:36:00,
2013-06-23 14:42:00,84.8,58.5,30.21,WSW,241,3.4,5.4,41,0.00,,BKN045,0.00,VWS V14.00,2013-06-23 18:42:00,
2013-06-23 14:47:00,85.4,58.3,30.18,South,191,4.9,6.4,40,0.00,,BKN045,0.00,VWS V14.00,2013-06-23 18:47:00,
2013-06-23 14:52:00,85.2,57.5,30.18,South,179,4.4,5.9,39,0.00,,BKN045,0.00,VWS V14.00,2013-06-23 18:52:00,
2013-06-23 14:57:00,85.4,58.3,30.18,SSW,193,3.4,8.1,40,0.00,,BKN045,0.00,VWS V14.00,2013-06-23 18:57:00,
2013-06-23 15:02:00,85.2,58.8,30.18,South,178,2.5,7.5,41,0.00,,BKN045,0.00,VWS V14.00,2013-06-23 19:02:00,
2013-06-23 15:07:00,85.2,58.8,30.18,ESE,121,5.4,5.9,41,0.00,,CLR,0.00,VWS V14.00,2013-06-23 19:07:00,
2013-06-23 15:12:00,85.7,58.7,30.18,SSE,158,3.4,3.8,40,0.00,,CLR,0.00,VWS V14.00,2013-06-23 19:12:00,
2013-06-23 15:17:00,85.5,59.8,30.18,SW,222,3.0,4.8,42,0.00,,CLR,0.00,VWS V14.00,2013-06-23 19:17:00,
2013-06-23 15:22:00,86.1,60.3,30.18,WSW,248,5.9,7.0,42,0.00,,CLR,0.00,VWS V14.00,2013-06-23 19:22:00,
2013-06-23 15:27:00,85.9,58.8,30.18,ESE,123,4.4,5.9,40,0.00,,CLR,0.00,VWS V14.00,2013-06-23 19:27:00,
2013-06-23 15:32:00,84.8,59.2,30.18,WSW,247,5.4,5.9,42,0.00,,CLR,0.00,VWS V14.00,2013-06-23 19:32:00,
2013-06-23 15:37:00,84.4,59.5,30.18,WSW,253,3.9,4.8,43,0.00,,CLR,0.00,VWS V14.00,2013-06-23 19:37:00,
2013-06-23 15:42:00,85.5,60.5,30.18,WSW,243,3.4,4.3,43,0.00,,CLR,0.00,VWS V14.00,2013-06-23 19:42:00,
2013-06-23 15:47:00,85.4,59.0,30.18,NNW,346,0.0,5.9,41,0.00,,CLR,0.00,VWS V14.00,2013-06-23 19:47:00,
2013-06-23 15:52:00,84.8,59.2,30.18,SW,227,3.9,6.4,42,0.00,,CLR,0.00,VWS V14.00,2013-06-23 19:52:00,
2013-06-23 15:57:00,86.1,58.3,30.18,SW,218,6.4,7.0,39,0.00,,CLR,0.00,VWS V14.00,2013-06-23 19:57:00,
2013-06-23 16:03:00,86.1,58.3,30.18,South,190,3.9,4.3,39,0.00,,SCT047,0.00,VWS V14.00,2013-06-23 20:03:00,
2013-06-23 16:08:00,86.3,59.1,30.18,SSW,206,3.9,7.5,40,0.00,,SCT047,0.00,VWS V14.00,2013-06-23 20:08:00,
2013-06-23 16:13:00,87.2,60.0,30.18,SSE,167,4.4,5.9,40,0.00,,SCT047,0.00,VWS V14.00,2013-06-23 20:13:00,
2013-06-23 16:18:00,86.7,58.8,30.18,South,172,5.9,7.5,39,0.00,,SCT047,0.00,VWS V14.00,2013-06-23 20:18:00,
2013-06-23 16:23:00,87.2,59.3,30.18,SSE,162,4.4,6.4,39,0.00,,SCT047,0.00,VWS V14.00,2013-06-23 20:23:00,
2013-06-23 16:28:00,87.0,59.1,30.18,SSE,154,7.4,8.1,39,0.00,,SCT047,0.00,VWS V14.00,2013-06-23 20:28:00,
2013-06-23 16:33:00,86.8,56.7,30.15,South,181,3.4,4.8,36,0.00,,SCT047,0.00,VWS V14.00,2013-06-23 20:33:00,
2013-06-23 16:38:00,86.7,57.3,30.15,South,182,4.4,7.0,37,0.00,,SCT047,0.00,VWS V14.00,2013-06-23 20:38:00,
2013-06-23 16:43:00,86.8,56.7,30.15,SW,228,3.4,3.8,36,0.00,,SCT047,0.00,VWS V14.00,2013-06-23 20:43:00,
2013-06-23 16:49:00,87.2,57.8,30.15,SSE,151,5.4,5.9,37,0.00,,SCT047,0.00,VWS V14.00,2013-06-23 20:49:00,
2013-06-23 16:54:00,86.1,54.5,30.15,SSW,201,4.4,7.0,34,0.00,,SCT047,0.00,VWS V14.00,2013-06-23 20:54:00,
2013-06-23 16:59:00,86.1,56.0,30.15,SSW,195,5.9,6.4,36,0.00,,SCT047,0.00,VWS V14.00,2013-06-23 20:59:00,
2013-06-23 17:04:00,85.9,55.9,30.18,West,267,3.9,4.3,36,0.00,,CLR,0.00,VWS V14.00,2013-06-23 21:04:00,
2013-06-23 17:09:00,86.1,56.0,30.18,SSW,197,3.4,4.8,36,0.00,,CLR,0.00,VWS V14.00,2013-06-23 21:09:00,
2013-06-23 17:14:00,85.9,56.6,30.18,SSW,209,4.4,7.5,37,0.00,,CLR,0.00,VWS V14.00,2013-06-23 21:14:00,
2013-06-23 17:19:00,85.7,55.0,30.15,WSW,240,5.4,6.4,35,0.00,,CLR,0.00,VWS V14.00,2013-06-23 21:19:00,
2013-06-23 17:24:00,85.5,56.3,30.15,WSW,240,3.0,3.8,37,0.00,,CLR,0.00,VWS V14.00,2013-06-23 21:24:00,
2013-06-23 17:29:00,85.5,56.3,30.15,SSW,202,2.5,3.2,37,0.00,,CLR,0.00,VWS V14.00,2013-06-23 21:29:00,
2013-06-23 17:35:00,85.5,55.6,30.15,SSE,151,6.4,7.0,36,0.00,,CLR,0.00,VWS V14.00,2013-06-23 21:35:00,
2013-06-23 17:40:00,85.4,56.2,30.15,SSE,160,3.4,4.3,37,0.00,,CLR,0.00,VWS V14.00,2013-06-23 21:40:00,
2013-06-23 17:45:00,85.2,55.2,30.15,SSE,155,4.4,6.4,36,0.00,,CLR,0.00,VWS V14.00,2013-06-23 21:45:00,
2013-06-23 17:50:00,84.8,54.9,30.15,SW,220,4.4,4.8,36,0.00,,CLR,0.00,VWS V14.00,2013-06-23 21:50:00,
2013-06-23 17:55:00,84.4,53.8,30.15,SSW,210,3.9,7.5,35,0.00,,CLR,0.00,VWS V14.00,2013-06-23 21:55:00,
2013-06-23 18:00:00,84.4,55.3,30.15,SSW,206,6.9,7.5,37,0.00,,CLR,0.00,VWS V14.00,2013-06-23 22:00:00,
2013-06-23 18:05:00,84.6,57.0,30.15,SSW,213,3.9,4.3,39,0.00,,FEW055,0.00,VWS V14.00,2013-06-23 22:05:00,
2013-06-23 18:10:00,84.4,56.8,30.15,SSW,201,4.9,6.4,39,0.00,,FEW055,0.00,VWS V14.00,2013-06-23 22:10:00,
2013-06-23 18:15:00,84.1,56.5,30.15,SSE,154,3.0,4.8,39,0.00,,FEW055,0.00,VWS V14.00,2013-06-23 22:15:00,
2013-06-23 18:20:00,84.1,56.5,30.15,WNW,286,3.9,4.3,39,0.00,,FEW055,0.00,VWS V14.00,2013-06-23 22:20:00,
2013-06-23 18:26:00,83.9,56.3,30.15,WNW,295,3.9,4.3,39,0.00,,FEW055,0.00,VWS V14.00,2013-06-23 22:26:00,
2013-06-23 18:31:00,83.9,57.7,30.15,SSW,209,3.4,4.8,41,0.00,,FEW055,0.00,VWS V14.00,2013-06-23 22:31:00,
2013-06-23 18:36:00,83.5,57.3,30.15,West,263,8.9,9.7,41,0.00,,FEW055,0.00,VWS V14.00,2013-06-23 22:36:00,
2013-06-23 18:41:00,83.3,56.5,30.15,SW,215,3.9,9.1,40,0.00,,FEW055,0.00,VWS V14.00,2013-06-23 22:41:00,
2013-06-23 18:46:00,83.3,57.2,30.15,SSW,198,3.9,7.5,41,0.00,,FEW055,0.00,VWS V14.00,2013-06-23 22:46:00,
2013-06-23 18:51:00,82.9,55.5,30.15,South,189,3.0,7.0,39,0.00,,FEW055,0.00,VWS V14.00,2013-06-23 22:51:00,
2013-06-23 18:56:00,82.9,56.2,30.15,South,182,6.4,7.0,40,0.00,,FEW055,0.00,VWS V14.00,2013-06-23 22:56:00,
2013-06-23 19:01:00,82.8,56.0,30.15,South,191,8.4,9.7,40,0.00,,FEW055,0.00,VWS V14.00,2013-06-23 23:01:00,
2013-06-23 19:06:00,82.6,55.1,30.15,WNW,295,5.9,7.0,39,0.00,,CLR,0.00,VWS V14.00,2013-06-23 23:06:00,
2013-06-23 19:11:00,82.4,55.0,30.15,SSW,195,4.4,4.8,39,0.00,,CLR,0.00,VWS V14.00,2013-06-23 23:11:00,
2013-06-23 19:16:00,82.2,54.8,30.18,SW,224,5.4,6.4,39,0.00,,CLR,0.00,VWS V14.00,2013-06-23 23:16:00,
2013-06-23 19:21:00,81.7,55.0,30.18,South,173,3.9,4.3,40,0.00,,CLR,0.00,VWS V14.00,2013-06-23 23:21:00,
2013-06-23 19:27:00,81.8,55.2,30.18,SSW,198,0.0,3.2,40,0.00,,CLR,0.00,VWS V14.00,2013-06-23 23:27:00,
2013-06-23 19:32:00,81.8,55.8,30.18,SSW,197,0.0,3.2,41,0.00,,CLR,0.00,VWS V14.00,2013-06-23 23:32:00,
2013-06-23 19:37:00,81.3,56.0,30.18,SE,131,0.0,2.7,42,0.00,,CLR,0.00,VWS V14.00,2013-06-23 23:37:00,
2013-06-23 19:42:00,81.1,55.8,30.18,SSE,163,2.5,2.7,42,0.00,,CLR,0.00,VWS V14.00,2013-06-23 23:42:00,
2013-06-23 19:47:00,80.9,56.3,30.18,SSE,160,0.0,2.7,43,0.00,,CLR,0.00,VWS V14.00,2013-06-23 23:47:00,
2013-06-23 19:52:00,80.9,56.3,30.18,SSE,155,2.5,3.2,43,0.00,,CLR,0.00,VWS V14.00,2013-06-23 23:52:00,
2013-06-23 19:57:00,80.7,56.8,30.18,SSE,155,0.0,0.0,44,0.00,,CLR,0.00,VWS V14.00,2013-06-23 23:57:00,
2013-06-23 20:02:00,80.5,57.3,30.18,SSW,194,0.0,0.0,45,0.00,,CLR,0.00,VWS V14.00,2013-06-24 00:02:00,
2013-06-23 20:07:00,79.8,57.2,30.18,SSW,194,0.0,0.0,46,0.00,,CLR,0.00,VWS V14.00,2013-06-24 00:07:00,
2013-06-23 20:12:00,78.5,58.3,30.18,SSW,194,0.0,0.0,50,0.00,,CLR,0.00,VWS V14.00,2013-06-24 00:12:00,
2013-06-23 20:17:00,77.8,58.7,30.18,North,357,0.0,0.0,52,0.00,,CLR,0.00,VWS V14.00,2013-06-24 00:17:00,
2013-06-23 20:22:00,77.6,59.1,30.18,North,357,0.0,0.0,53,0.00,,CLR,0.00,VWS V14.00,2013-06-24 00:22:00,
2013-06-23 20:27:00,77.2,58.8,30.18,NE,53,2.5,3.2,53,0.00,,CLR,0.00,VWS V14.00,2013-06-24 00:27:00,
2013-06-23 20:32:00,77.0,59.1,30.18,ENE,57,0.0,0.0,54,0.00,,CLR,0.00,VWS V14.00,2013-06-24 00:32:00,
2013-06-23 20:33:00,76.8,58.9,30.18,ENE,57,0.0,2.7,54,0.00,,CLR,0.00,VWS V14.00,2013-06-24 00:33:00,
2013-06-23 20:38:00,76.5,59.1,30.18,ENE,59,2.5,2.7,55,0.00,,CLR,0.00,VWS V14.00,2013-06-24 00:38:00,
2013-06-23 20:44:00,75.7,59.4,30.18,ENE,68,0.0,2.7,57,0.00,,CLR,0.00,VWS V14.00,2013-06-24 00:44:00,
2013-06-23 20:49:00,75.3,59.1,30.18,ENE,59,3.0,3.2,57,0.00,,CLR,0.00,VWS V14.00,2013-06-24 00:49:00,
2013-06-23 20:54:00,75.2,59.4,30.18,ENE,63,0.0,2.7,58,0.00,,CLR,0.00,VWS V14.00,2013-06-24 00:54:00,
2013-06-23 20:59:00,75.0,59.2,30.18,ENE,63,2.5,3.2,58,0.00,,CLR,0.00,VWS V14.00,2013-06-24 00:59:00,
2013-06-23 21:04:00,74.6,58.9,30.18,ENE,63,2.5,2.7,58,0.00,,CLR,0.00,VWS V14.00,2013-06-24 01:04:00,
2013-06-23 21:09:00,74.6,59.3,30.18,ENE,63,0.0,2.7,59,0.00,,CLR,0.00,VWS V14.00,2013-06-24 01:09:00,
2013-06-23 21:14:00,74.4,59.2,30.18,ENE,63,0.0,0.0,59,0.00,,CLR,0.00,VWS V14.00,2013-06-24 01:14:00,
2013-06-23 21:19:00,74.2,59.0,30.18,ENE,63,0.0,0.0,59,0.00,,CLR,0.00,VWS V14.00,2013-06-24 01:19:00,
2013-06-23 21:24:00,73.9,59.1,30.18,ENE,63,0.0,0.0,60,0.00,,CLR,0.00,VWS V14.00,2013-06-24 01:24:00,
2013-06-23 21:29:00,73.7,59.4,30.18,ENE,63,3.0,3.2,61,0.00,,CLR,0.00,VWS V14.00,2013-06-24 01:29:00,
2013-06-23 21:34:00,73.5,59.2,30.18,ENE,63,3.0,3.8,61,0.00,,CLR,0.00,VWS V14.00,2013-06-24 01:34:00,
2013-06-23 21:39:00,73.5,58.8,30.18,ENE,63,0.0,0.0,60,0.00,,CLR,0.00,VWS V14.00,2013-06-24 01:39:00,
2013-06-23 21:44:00,73.3,58.6,30.18,ENE,63,0.0,0.0,60,0.00,,CLR,0.00,VWS V14.00,2013-06-24 01:44:00,
2013-06-23 21:49:00,72.9,59.2,30.21,ENE,63,0.0,2.7,62,0.00,,CLR,0.00,VWS V14.00,2013-06-24 01:49:00,
2013-06-23 21:55:00,72.8,59.4,30.21,ENE,63,0.0,0.0,63,0.00,,CLR,0.00,VWS V14.00,2013-06-24 01:55:00,
2013-06-23 22:00:00,72.6,59.3,30.21,ENE,63,0.0,0.0,63,0.00,,CLR,0.00,VWS V14.00,2013-06-24 02:00:00,
2013-06-23 22:05:00,72.6,59.3,30.21,ENE,63,0.0,0.0,63,0.00,,BKN050,0.00,VWS V14.00,2013-06-24 02:05:00,
2013-06-23 22:10:00,72.4,59.1,30.21,ENE,63,0.0,0.0,63,0.00,,BKN050,0.00,VWS V14.00,2013-06-24 02:10:00,
2013-06-23 22:15:00,72.2,58.9,30.21,ENE,63,0.0,0.0,63,0.00,,BKN050,0.00,VWS V14.00,2013-06-24 02:15:00,
2013-06-23 22:20:00,72.0,58.7,30.21,ESE,108,0.0,3.2,63,0.00,,BKN050,0.00,VWS V14.00,2013-06-24 02:20:00,
2013-06-23 22:25:00,71.8,58.6,30.21,ESE,112,0.0,0.0,63,0.00,,BKN050,0.00,VWS V14.00,2013-06-24 02:25:00,
2013-06-23 22:30:00,71.6,58.4,30.21,ESE,112,0.0,0.0,63,0.00,,BKN050,0.00,VWS V14.00,2013-06-24 02:30:00,
2013-06-23 22:35:00,71.4,58.2,30.21,ESE,112,0.0,0.0,63,0.00,,BKN050,0.00,VWS V14.00,2013-06-24 02:35:00,
2013-06-23 22:40:00,70.9,58.1,30.21,ESE,112,0.0,0.0,64,0.00,,BKN050,0.00,VWS V14.00,2013-06-24 02:40:00,
2013-06-23 22:46:00,70.9,58.1,30.21,ESE,112,0.0,0.0,64,0.00,,BKN050,0.00,VWS V14.00,2013-06-24 02:46:00,
2013-06-23 22:51:00,70.5,58.2,30.21,ESE,112,0.0,0.0,65,0.00,,BKN050,0.00,VWS V14.00,2013-06-24 02:51:00,
2013-06-23 22:56:00,70.5,58.6,30.21,ESE,112,0.0,0.0,66,0.00,,BKN050,0.00,VWS V14.00,2013-06-24 02:56:00,
2013-06-23 23:04:00,70.5,58.6,30.24,ESE,112,0.0,0.0,66,0.00,,BKN050,0.00,VWS V14.00,2013-06-24 03:04:00,
2013-06-23 23:09:00,70.5,58.6,30.24,ESE,112,0.0,0.0,66,0.00,,BKN050,0.00,VWS V14.00,2013-06-24 03:09:00,
2013-06-23 23:14:00,70.5,59.0,30.24,ESE,112,0.0,0.0,67,0.00,,BKN050,0.00,VWS V14.00,2013-06-24 03:14:00,
2013-06-23 23:19:00,70.5,59.0,30.24,ESE,112,0.0,0.0,67,0.00,,BKN110,0.00,VWS V14.00,2013-06-24 03:19:00,
2013-06-23 23:24:00,70.3,58.9,30.24,ESE,112,0.0,0.0,67,0.00,,BKN110,0.00,VWS V14.00,2013-06-24 03:24:00,
2013-06-23 23:30:00,69.6,59.4,30.24,ESE,112,0.0,0.0,70,0.00,,BKN110,0.00,VWS V14.00,2013-06-24 03:30:00,
2013-06-23 23:35:00,69.6,59.4,30.24,ESE,112,0.0,0.0,70,0.00,,BKN110,0.00,VWS V14.00,2013-06-24 03:35:00,
2013-06-23 23:40:00,69.4,59.6,30.24,ESE,112,0.0,0.0,71,0.00,,BKN110,0.00,VWS V14.00,2013-06-24 03:40:00,
2013-06-23 23:45:00,69.2,59.4,30.24,ESE,112,0.0,0.0,71,0.00,,BKN110,0.00,VWS V14.00,2013-06-24 03:45:00,
2013-06-23 23:50:00,69.0,59.7,30.24,ESE,112,0.0,0.0,72,0.00,,BKN110,0.00,VWS V14.00,2013-06-24 03:50:00,
2013-06-23 23:55:00,69.2,59.8,30.24,ESE,112,0.0,0.0,72,0.00,,BKN110,0.00,VWS V14.00,2013-06-24 03:55:00,